Tracking 18850 objects as of 22-Nov-2017
HD Live streaming from Space Station
objects crossing your sky now

ATLAS CENTAUR R/B

Track ATLAS CENTAUR R/B now!


NORAD ID: 10976
Int'l Code: 1978-068B
Perigee: 663.4 km
Apogee: 36,191.9 km
Inclination: 21.4 °
Period: 647.7 minutes
Semi major axis: 24798 km
RCS: 16.8333 m2 (large)
Launch date: June 29, 1978
Source: United States (US)
Launch site: AIR FORCE EASTERN TEST RANGE (AFETR)

Note: This is a ROCKET BODY
aabbcc
Your satellite tracking list
Your tracking list is empty




NASA's NSSDC Master Catalog

Two Line Element Set (TLE):
1 10976U 78068B   17326.29428102 -.00000089  00000-0 -10045-2 0  9990
2 10976  21.4226 146.6797 7163402 357.1684 307.4295  2.22310951319771
Source of the keplerian elements: AFSPC